Regional Weather Roundup
Issued by NWS

Home | Current Version | Previous Version | Graphics & Text | Print | Product List | Glossary On
Versions: 1 2 3 4 5 6 7 8 9 10 11 12 13 14 15 16 17 18 19 20 21 22 23 24 25 26 27 28 29 30 31 32 33 34 35 36 37 38 39 40 41 42 43 44 45 46 47 48 49 50
000
ASUS43 KDMX 300703
RWRIA

WEATHER ROUNDUP FOR IOWA
NATIONAL WEATHER SERVICE DES MOINES IA
200 AM CDT TUE AUG 30 2016

NOTE: "FAIR" INDICATES FEW OR NO CLOUDS BELOW 12,000 FEET WITH NO
SIGNIFICANT WEATHER AND/OR OBSTRUCTIONS TO VISIBILITY.

* - THESE STATIONS ARE NOT NWS STATIONS...THUS NOT UNDER NWS
QUALITY CONTROL.  THEY ALSO DO NOT REPORT WEATHER SUCH
AS PRECIPITATION OR FOG.

IAZ001>003-012>014-020>022-031>034-043>046-300800-
   NORTHWEST IOWA

CITY           SKY/WX    TMP DP  RH WIND       PRES   REMARKS
CARROLL *      CLOUDY    68  68 100 N6        30.19S
CHEROKEE *     CLOUDY    68  68  98 SE5       30.19R
DENISON *      CLOUDY    68  66  94 N7        30.17R
LE MARS *      CLOUDY    68  66  94 CALM      30.19R
ORANGE CITY *  CLOUDY    68  66  94 CALM      30.19F
SHELDON *      CLOUDY    68  68 100 CALM      30.19R
SIOUX CITY     CLOUDY    69  67  93 S5        30.18S
SPENCER        MOCLDY    68  65  90 SW5       30.19R
STORM LAKE *   CLOUDY    68  66  94 SW5       30.21S
$$

IAZ055>058-069>071-079>083-090>094-300800-
   SOUTHWEST IOWA

CITY           SKY/WX    TMP DP  RH WIND       PRES   REMARKS
ATLANTIC *     CLOUDY    70  68  94 CALM      30.16F
AUDUBON *      CLOUDY    68  66  94 CALM      30.18F
CLARINDA *       N/A     70  70 100 MISG      30.20F
COUNCIL BLFS * CLOUDY    68  68 100 SW9       30.18F
CRESTON *      LGT RAIN  70  68  94 CALM      30.18F
HARLAN  *      CLOUDY    66  66 100 CALM      30.20F FOG
LAMONI         CLOUDY    69  68  96 N5        30.18F
RED OAK *      CLOUDY    70  68  94 SW6       30.18F
SHENANDOAH *   CLOUDY    70 -38   1 CALM      30.17F
$$

IAZ047>049-059>061-072>074-084-300800-
   CENTRAL IOWA

CITY           SKY/WX    TMP DP  RH WIND       PRES   REMARKS
AMES           CLOUDY    68  68 100 CALM      30.18S
ANKENY *         N/A    N/A N/A N/A MISG        N/A
BOONE *          N/A     70  68  94 NW5       30.18S
CHARITON *       N/A     70  70 100 MISG      30.16F
DES MOINES     MOCLDY    73  70  90 NW6       30.16S
GRINNELL*      CLOUDY    68  66  93 E5        30.19F
KNOXVILLE *    CLOUDY    72  70  94 CALM      30.17R
MARSHALLTOWN   CLOUDY    66  66 100 E3        30.18S
NEWTON *       CLOUDY    70  70 100 N3        30.18R
PELLA *        CLOUDY    70  68  94 E3        30.18F
PERRY *          N/A     69  69 100 CALM      30.18F
$$

IAZ004>006-015-016-023>025-035-036-300800-
   NORTH CENTRAL IOWA

CITY           SKY/WX    TMP DP  RH WIND       PRES   REMARKS
ALGONA *       CLOUDY    70  68  94 S7        30.21R
ESTHERVILLE    CLOUDY    70  68  93 W9        30.18S
FORT DODGE *   CLOUDY    70  66  88 CALM      30.21S
MASON CITY     CLOUDY    67  66  97 S3        30.23R
FOREST CITY *    N/A    N/A N/A N/A MISG        N/A
WEBSTER CITY * CLOUDY    66  66 100 CALM      30.19R
IOWA FALLS *   MOCLDY    66  65  96 N3        30.21S FOG
$$

IAZ007>011-017>019-026>030-037>042-050>054-066-300800-
   NORTHEAST IOWA

CITY           SKY/WX    TMP DP  RH WIND       PRES   REMARKS
CEDAR RAPIDS   MOCLDY    70  70 100 E5        30.16F
CHARLES CITY * FOG       68  68 100 CALM      30.22R VSB 1/4
CLINTON *      CLOUDY    69  68  96 NE5       30.17F
DECORAH *      CLOUDY    70  70 100 CALM      30.20R
DUBUQUE        CLOUDY    69  68  96 N5        30.20S
MONTICELLO *   PTCLDY    70  70 100 CALM      30.18S FOG
OELWEIN *      CLOUDY    70  68  94 N5        30.21R
WATERLOO       CLOUDY    68  66  93 CALM      30.18R
$$

IAZ064-065-067-068-078-300800-
   EAST CENTRAL IOWA

CITY           SKY/WX    TMP DP  RH WIND       PRES   REMARKS
DAVENPORT      CLOUDY    70  68  93 CALM      30.17F FOG
IOWA CITY      CLOUDY    71  69  93 CALM      30.17F
MT. PLEASANT * CLEAR     73  73 100 NE3       30.16F FOG
QUAD CITIES    PTCLDY    72  70  93 CALM      30.16F THUNDER
$$

IAZ062-063-075>077-085>089-095>099-300800-
   SOUTHEAST IOWA

CITY           SKY/WX    TMP DP  RH WIND       PRES   REMARKS
BURLINGTON     CLEAR     71  70  96 N6        30.15F
FAIRFIELD *    MOCLDY    70  68  94 NW6       30.17F
FORT MADISON * CLEAR     70  70 100 CALM      30.16F
KEOKUK *       PTCLDY    72  70  94 CALM      30.15S
OSKALOOSA *    CLOUDY    69  68  97 NE3       30.19S FOG
CENTERVILLE *    N/A     70  68  94 CALM      30.17F
OTTUMWA        CLOUDY    69  66  90 CALM      30.19F THUNDER
WASHINGTON *   CLOUDY    72  72 100 E5        30.17F FOG
$$

ABBREVIATIONS USED IN REMARKS
   TC - TEMPERATURES IN CELSIUS
  WCI - WIND CHILL INDEX
   HX - HEAT INDEX
  VSB - VISIBILITY
$$





USA.gov is the U.S. government's official web portal to all federal, state and local government web resources and services.